Location: Fontevrault
(47.1823°N, 0.0493°E)
Time: 17:56:33
(UTC+00:00)

Cosmos 1459 Rocket - Pass Details

Date: 20 October 2021
Orbit: 936 x 1000 km, 83.0° (Epoch: 27 November)

Event Time Altitude Azimuth Distance (km) Brightness Sun altitude
Exits shadow 22:08:42 13° 312° (NW) 2,468 6.6 -48.3°
Drops below altitude 10° 22:10:40 10° 330° (NNW) 2,696 6.8 -48.5°
Sets 22:14:40 0° 356° (N) 3,634 7.5 -48.9°
